This demonstration page uses our WeatherBlox Daily Observations layout. Learn more.

39.29038, -76.61219

Hourly Observations for December 5, 2017

Temp ( °F °C ) Dew Point ( °F °C ) Humidity (%) Winds ( mph kmh ) Pressure ( in mb ) Visibility ( mi km ) Precip ( " mm )
12:54 am 00:54 undefined 47 8.3 44 6.7 90 90 undefined N/A 30.3 1026 N/A 0 0
1:54 am 01:54 undefined 47 8.3 44 6.7 90 90 undefined N/A 30.3 1026 N/A 0 0
2:54 am 02:54 undefined 47 8.3 44 6.7 90 90 undefined N/A 30.27 1025 N/A 0 0
3:54 am 03:54 undefined 48 8.9 46 7.8 93 93 undefined N/A 30.24 1024 N/A 0 0
4:54 am 04:54 undefined 49 9.4 46 7.8 90 90 undefined N/A 30.21 1023 N/A 0 0
5:54 am 05:54 undefined 49 9.4 46 7.8 90 90 undefined N/A 30.21 1023 N/A 0 0
6:54 am 06:54 undefined 50 10 47 8.3 89 89 undefined N/A 30.18 1022 N/A 0 0
7:54 am 07:54 undefined 50 10 48 8.9 93 93 undefined N/A 30.18 1022 N/A 0 0
8:54 am 08:54 undefined 52 11.1 49 9.4 89 89 undefined N/A 30.15 1021 N/A 0 0
9:54 am 09:54 undefined 53 11.7 49 9.4 86 86 undefined N/A 30.15 1021 N/A 0 0
10:54 am 10:54 undefined 55 12.8 50 10 83 83 undefined N/A 30.12 1020 N/A 0 0
11:54 am 11:54 undefined 57 13.9 52 11.1 83 83 undefined N/A 30.09 1019 N/A 0 0
12:54 pm 12:54 undefined 60 15.6 53 11.7 78 78 undefined N/A 30.03 1017 N/A 0 0
1:54 pm 13:54 undefined 62 16.7 52 11.1 70 70 undefined N/A 30 1016 N/A 0 0
2:54 pm 14:54 undefined 61 16.1 52 11.1 72 72 undefined N/A 30 1016 N/A 0 0
3:54 pm 15:54 undefined 60 15.6 53 11.7 78 78 undefined N/A 29.97 1015 N/A 0 0
4:54 pm 16:54 undefined 60 15.6 53 11.7 78 78 undefined N/A 29.97 1015 N/A 0 0
5:54 pm 17:54 undefined 59 15 53 11.7 81 81 undefined N/A 29.94 1014 N/A 0 0
6:54 pm 18:54 undefined 58 14.4 55 12.8 90 90 undefined N/A 29.94 1014 N/A 0.03 0.762
7:54 pm 19:54 undefined 57 13.9 55 12.8 93 93 undefined N/A 29.94 1014 N/A 0.07 1.778
8:54 pm 20:54 undefined 58 14.4 56 13.3 93 93 undefined N/A 29.88 1012 N/A 0.02 0.508
9:54 pm 21:54 undefined 58 14.4 56 13.3 93 93 undefined N/A 29.88 1012 N/A 0 0
10:54 pm 22:54 undefined 57 13.9 56 13.3 96 96 undefined N/A 29.85 1011 N/A 0 0
11:54 pm 23:54 undefined 57 13.9 55 12.8 93 93 undefined N/A 29.85 1011 N/A 0 0

Powered by AerisWeather